TimeEDT,TemperatureF,Dew PointF,Humidity,Sea Level PressureIn,VisibilityMPH,Wind Direction,Wind SpeedMPH,Gust SpeedMPH,PrecipitationIn,Events,Conditions,WindDirDegrees,DateUTC
12:53 AM,39.0,28.0,65,29.78,10.0,WNW,11.5,-,N/A,,Overcast,300,2012-11-02 04:53:00
1:53 AM,39.0,28.0,65,29.78,10.0,WNW,10.4,-,N/A,,Overcast,300,2012-11-02 05:53:00
2:53 AM,37.9,28.9,70,29.79,10.0,NW,12.7,25.3,N/A,,Overcast,310,2012-11-02 06:53:00
3:53 AM,37.9,28.9,70,29.79,10.0,WNW,11.5,16.1,N/A,,Overcast,290,2012-11-02 07:53:00
4:53 AM,37.9,28.0,68,29.80,10.0,NW,12.7,-,N/A,,Overcast,310,2012-11-02 08:53:00
5:53 AM,37.9,28.9,70,29.81,10.0,NW,10.4,-,N/A,,Overcast,310,2012-11-02 09:53:00
6:46 AM,37.4,28.4,70,29.81,10.0,NW,9.2,-,N/A,,Overcast,310,2012-11-02 10:46:00
6:53 AM,37.9,28.9,70,29.83,10.0,NW,12.7,19.6,N/A,,Overcast,310,2012-11-02 10:53:00
7:53 AM,35.1,32.0,89,29.86,9.0,NNW,11.5,18.4,0.00,Rain,Light Rain,330,2012-11-02 11:53:00
8:53 AM,35.1,32.0,89,29.88,10.0,NW,9.2,-,0.00,,Overcast,310,2012-11-02 12:53:00
9:44 AM,37.4,30.2,75,29.87,10.0,NNW,8.1,16.1,N/A,,Mostly Cloudy,330,2012-11-02 13:44:00
9:53 AM,37.0,30.0,76,29.90,10.0,North,15.0,20.7,N/A,,Mostly Cloudy,350,2012-11-02 13:53:00
10:53 AM,37.0,26.1,65,29.92,10.0,NNW,15.0,23.0,N/A,,Mostly Cloudy,330,2012-11-02 14:53:00
11:53 AM,37.0,25.0,62,29.94,10.0,NNW,17.3,21.9,N/A,,Mostly Cloudy,330,2012-11-02 15:53:00
12:53 PM,37.9,25.0,60,29.96,10.0,NNW,16.1,23.0,N/A,,Overcast,330,2012-11-02 16:53:00
1:30 PM,37.4,26.6,65,29.94,10.0,NNW,15.0,-,N/A,,Overcast,340,2012-11-02 17:30:00
1:53 PM,37.9,25.0,60,29.96,10.0,North,12.7,-,N/A,,Overcast,350,2012-11-02 17:53:00
2:53 PM,39.0,25.0,57,29.97,10.0,NW,13.8,-,N/A,,Overcast,320,2012-11-02 18:53:00
3:53 PM,39.0,27.0,62,29.98,10.0,NW,10.4,-,N/A,,Overcast,320,2012-11-02 19:53:00
4:53 PM,39.0,28.0,65,29.99,10.0,NW,10.4,-,N/A,,Overcast,320,2012-11-02 20:53:00
5:14 PM,39.2,28.4,65,29.97,10.0,NNW,9.2,-,N/A,,Overcast,340,2012-11-02 21:14:00
5:23 PM,39.2,28.4,65,29.97,10.0,NNW,11.5,-,N/A,,Overcast,330,2012-11-02 21:23:00
5:53 PM,39.0,28.9,67,30.00,10.0,NNW,5.8,-,N/A,,Overcast,340,2012-11-02 21:53:00
6:53 PM,37.9,28.9,70,30.02,10.0,NNW,5.8,-,N/A,,Overcast,330,2012-11-02 22:53:00
7:53 PM,37.9,28.9,70,30.04,10.0,NNW,5.8,-,N/A,,Overcast,330,2012-11-02 23:53:00
8:53 PM,37.9,28.9,70,30.04,10.0,NW,5.8,-,N/A,,Overcast,310,2012-11-03 00:53:00
9:53 PM,37.9,28.9,70,30.05,10.0,NW,6.9,-,N/A,,Overcast,320,2012-11-03 01:53:00
10:36 PM,37.4,28.4,70,30.04,10.0,North,9.2,-,N/A,,Overcast,360,2012-11-03 02:36:00
10:53 PM,37.0,28.9,73,30.06,10.0,North,10.4,-,N/A,,Overcast,350,2012-11-03 02:53:00
11:11 PM,37.4,28.4,70,30.04,10.0,North,9.2,-,N/A,,Overcast,350,2012-11-03 03:11:00
11:53 PM,37.0,27.0,67,30.07,10.0,NNW,10.4,-,N/A,,Overcast,340,2012-11-03 03:53:00